TimeMDT,TemperatureF,Dew PointF,Humidity,Sea Level PressureIn,VisibilityMPH,Wind Direction,Wind SpeedMPH,Gust SpeedMPH,PrecipitationIn,Events,Conditions,WindDirDegrees,DateUTC
12:53 AM,33.1,28.0,82,30.01,10.0,South,5.8,-,N/A,,Clear,170,2013-03-11 06:53:00
1:53 AM,34.0,28.0,79,29.99,10.0,SSE,3.5,-,N/A,,Overcast,160,2013-03-11 07:53:00
2:53 AM,33.1,28.0,82,30.00,10.0,Calm,Calm,-,N/A,,Overcast,0,2013-03-11 08:53:00
3:53 AM,30.0,27.0,88,29.99,10.0,SSE,4.6,-,N/A,,Overcast,150,2013-03-11 09:53:00
4:53 AM,32.0,27.0,82,29.99,10.0,South,8.1,-,N/A,,Mostly Cloudy,190,2013-03-11 10:53:00
5:53 AM,33.1,26.1,75,30.00,10.0,Calm,Calm,-,N/A,,Overcast,0,2013-03-11 11:53:00
6:53 AM,34.0,25.0,70,30.02,10.0,Calm,Calm,-,N/A,,Overcast,0,2013-03-11 12:53:00
7:53 AM,35.1,25.0,67,30.06,10.0,Calm,Calm,-,N/A,,Overcast,0,2013-03-11 13:53:00
8:50 AM,33.8,32.0,93,30.03,5.0,NNE,8.1,-,0.00,Snow,Light Snow,30,2013-03-11 14:50:00
8:53 AM,34.0,32.0,92,30.09,5.0,NNE,9.2,-,0.00,Snow,Light Snow,30,2013-03-11 14:53:00
9:19 AM,33.8,32.0,93,30.03,7.0,Calm,Calm,-,0.00,Snow,Light Snow,0,2013-03-11 15:19:00
9:53 AM,35.1,32.0,89,30.09,10.0,West,5.8,-,0.00,,Overcast,260,2013-03-11 15:53:00
10:53 AM,37.0,32.0,82,30.09,10.0,WSW,8.1,-,N/A,,Overcast,240,2013-03-11 16:53:00
11:53 AM,37.0,32.0,82,30.09,10.0,WSW,8.1,-,N/A,,Overcast,240,2013-03-11 17:53:00
12:53 PM,39.9,30.9,70,30.07,10.0,West,8.1,-,N/A,,Overcast,270,2013-03-11 18:53:00
1:53 PM,39.9,30.9,70,30.07,10.0,West,8.1,-,N/A,,Overcast,260,2013-03-11 19:53:00
2:06 PM,37.4,30.2,75,30.01,2.5,NW,13.8,29.9,0.00,Snow,Light Snow,310,2013-03-11 20:06:00
2:13 PM,33.8,30.2,87,30.00,1.0,WSW,8.1,26.5,0.00,Snow,Light Snow,240,2013-03-11 20:13:00
2:26 PM,35.6,35.6,100,29.99,3.0,WSW,9.2,-,0.00,Snow,Light Snow,250,2013-03-11 20:26:00
2:53 PM,37.0,35.1,93,30.05,10.0,Calm,Calm,-,0.00,,Mostly Cloudy,0,2013-03-11 20:53:00
3:13 PM,37.4,33.8,87,30.01,10.0,North,13.8,19.6,N/A,,Mostly Cloudy,10,2013-03-11 21:13:00
3:27 PM,33.8,30.2,87,30.01,2.5,NNE,13.8,-,0.01,Snow,Light Snow,20,2013-03-11 21:27:00
3:35 PM,33.8,30.2,87,30.01,5.0,North,11.5,-,0.01,Snow,Light Snow,10,2013-03-11 21:35:00
3:44 PM,35.6,32.0,87,30.00,9.0,NNE,8.1,-,0.01,,Overcast,20,2013-03-11 21:44:00
3:53 PM,36.0,32.0,86,30.08,10.0,NE,5.8,-,0.01,,Overcast,40,2013-03-11 21:53:00
4:53 PM,37.0,33.1,86,30.09,10.0,SSW,9.2,-,N/A,,Mostly Cloudy,210,2013-03-11 22:53:00
5:53 PM,37.9,32.0,79,30.10,10.0,West,8.1,-,N/A,,Overcast,270,2013-03-11 23:53:00
6:53 PM,39.0,23.0,53,30.11,10.0,NW,15.0,-,N/A,,Scattered Clouds,320,2013-03-12 00:53:00
7:53 PM,33.1,28.0,82,30.18,10.0,West,8.1,-,N/A,,Mostly Cloudy,260,2013-03-12 01:53:00
8:53 PM,34.0,23.0,64,30.22,10.0,NW,8.1,-,N/A,,Mostly Cloudy,310,2013-03-12 02:53:00
9:53 PM,33.1,24.1,70,30.25,10.0,WNW,11.5,-,N/A,,Overcast,300,2013-03-12 03:53:00
10:53 PM,30.9,23.0,72,30.27,10.0,NW,17.3,-,N/A,,Overcast,310,2013-03-12 04:53:00
11:53 PM,30.0,21.0,69,30.29,10.0,NW,15.0,-,N/A,,Overcast,310,2013-03-12 05:53:00